Society Hill, SC

7:50 AM EST on February 12, 2016 (GMT -0500)
Darlington County Jetport

Weather History for KUDG - May, 2013

Change the Weather History Date:

Wednesday, May 29, 2013

  Actual Average (KFLO) Record (KFLO)
Temperature  
Mean Temperature 79 °F 74 °F  
Max Temperature 87 °F 85 °F 95 °F (1991)
Min Temperature 71 °F 64 °F 51 °F (1961)
Degree Days  
Heating Degree Days 0 0  
Month to date heating degree days 22  
Since 1 July heating degree days 2522  
Cooling Degree Days 14 10  
Month to date cooling degree days 190  
Year to date cooling degree days 286  
Growing Degree Days 29 (Base 50)    
Moisture  
Dew Point 62 °F    
Average Humidity 52    
Maximum Humidity 69    
Minimum Humidity 40    
Precipitation  
Precipitation 0.00 in 0.13 in 1.14 in (2001)
Month to date precipitation 3.00  
Year to date precipitation 15.10  
Sea Level Pressure  
Sea Level Pressure 30.24 in    
Wind  
Wind Speed 6 mph (South)    
Max Wind Speed 12 mph    
Max Gust Speed -    
Visibility 10 miles    
Events      
T = Trace of Precipitation, MM = Missing Value Source: NWS Daily Summary

Daily Weather History Graph

Daily Weather History Graph

Search for Another Location

Airport or City:

Trip Planner

Search our weather history database for the weather conditions in past years. The results will help you decide how hot, cold, wet, or windy it might be!

Date:

Astronomy

May. 29, 2013 Rise Set
Actual Time 6:09 AM EDT 8:25 PM EDT
Civil Twilight 5:40 AM EDT 8:53 PM EDT
Nautical Twilight 5:05 AM EDT 9:29 PM EDT
Astronomical Twilight 4:26 AM EDT 10:07 PM EDT
Moon No Moon Rise 10:59 AM EDT (5/29)
Length of Visible Light 15h 13m
Length of Day
14h 16m
Waning Gibbous, 73% of the Moon is Illuminated
May 29
Waning Gibbous
May 31
Last Quarter
Jun 8
New
Jun 16
First Quarter
Jun 23
Full

Hourly Weather History & Observations

Time (EDT) Temp. Heat Index Dew Point Humidity Pressure Visibility Wind Dir Wind Speed Gust Speed Precip Events Conditions
12:15 AM - - - N/A% 30.23 in 10.0 mi South 9.2 mph - N/A   Clear
12:35 AM - - - N/A% 30.23 in 10.0 mi South 10.4 mph - N/A   Clear
12:55 AM - - - N/A% 30.23 in 10.0 mi South 8.1 mph - N/A   Clear
1:15 AM - - - N/A% 30.23 in 10.0 mi SSW 6.9 mph - N/A   Clear
1:35 AM - - - N/A% 30.23 in 10.0 mi SSW 6.9 mph - N/A   Clear
1:55 AM - - - N/A% 30.22 in 10.0 mi South 6.9 mph - N/A   Clear
2:15 AM - - - N/A% 30.21 in 10.0 mi South 6.9 mph - N/A   Clear
2:35 AM - - - N/A% 30.21 in 10.0 mi SSW 5.8 mph - N/A   Clear
2:55 AM - - - N/A% 30.21 in 10.0 mi South 5.8 mph - N/A   Clear
3:15 AM - - - N/A% 30.20 in 10.0 mi South 6.9 mph - N/A   Clear
3:35 AM - - - N/A% 30.20 in 10.0 mi SSW 4.6 mph - N/A   Clear
3:55 AM - - - N/A% 30.20 in 10.0 mi SSW 3.5 mph - N/A   Clear
4:15 AM - - - N/A% 30.21 in 10.0 mi Calm Calm - N/A   Clear
4:35 AM - - - N/A% 30.22 in 10.0 mi Calm Calm - N/A   Clear
4:55 AM - - - N/A% 30.22 in 10.0 mi NNW 3.5 mph - N/A   Clear
5:15 AM - - - N/A% 30.22 in 10.0 mi Calm Calm - N/A   Clear
5:35 AM - - - N/A% 30.23 in 10.0 mi Calm Calm - N/A   Clear
5:55 AM - - - N/A% 30.24 in 10.0 mi Calm Calm - N/A   Clear
6:15 AM - - - N/A% 30.25 in 10.0 mi Calm Calm - N/A   Clear
6:35 AM - - - N/A% 30.25 in 10.0 mi Calm Calm - N/A   Clear
6:55 AM - - - N/A% 30.26 in 10.0 mi Calm Calm - N/A   Clear
7:15 AM - - - N/A% 30.26 in 10.0 mi SE 3.5 mph - N/A   Clear
7:35 AM - - - N/A% 30.25 in 10.0 mi SSE 4.6 mph - N/A   Clear
7:55 AM - - - N/A% 30.25 in 10.0 mi Calm Calm - N/A   Clear
8:15 AM - - - N/A% 30.26 in 10.0 mi Calm Calm - N/A   Clear
8:35 AM - - - N/A% 30.26 in 10.0 mi South 3.5 mph - N/A   Clear
8:55 AM - - - N/A% 30.27 in 10.0 mi SSE 4.6 mph - N/A   Clear
9:15 AM - - - N/A% 30.27 in 10.0 mi South 4.6 mph - N/A   Partly Cloudy
9:35 AM - - - N/A% 30.27 in 10.0 mi South 9.2 mph - N/A   Scattered Clouds
9:55 AM - - - N/A% 30.28 in 10.0 mi South 6.9 mph - N/A   Mostly Cloudy
10:15 AM - - - N/A% 30.28 in 10.0 mi South 8.1 mph - N/A   Mostly Cloudy
10:35 AM 78.8 °F - 62.6 °F 57% 30.29 in 10.0 mi WSW 6.9 mph - N/A   Mostly Cloudy
10:55 AM 78.8 °F - 62.6 °F 57% 30.29 in 10.0 mi SW 6.9 mph - N/A   Overcast
11:15 AM 78.8 °F - 60.8 °F 54% 30.29 in 10.0 mi SSW 6.9 mph - N/A   Scattered Clouds
11:35 AM 80.6 °F 81.5 °F 60.8 °F 51% 30.29 in 10.0 mi South 5.8 mph - N/A   Partly Cloudy
11:55 AM 80.6 °F 81.5 °F 60.8 °F 51% 30.29 in 10.0 mi SSE 4.6 mph - N/A   Clear
12:15 PM 80.6 °F 81.5 °F 60.8 °F 51% 30.29 in 10.0 mi South 5.8 mph - N/A   Scattered Clouds
12:35 PM 82.4 °F 82.9 °F 60.8 °F 48% 30.28 in 10.0 mi SSE 6.9 mph - N/A   Mostly Cloudy
12:55 PM 82.4 °F 82.9 °F 60.8 °F 48% 30.28 in 10.0 mi SSE 5.8 mph - N/A   Mostly Cloudy
1:15 PM 82.4 °F 82.9 °F 60.8 °F 48% 30.27 in 10.0 mi SSE 8.1 mph - N/A   Mostly Cloudy
1:35 PM 84.2 °F 84.4 °F 60.8 °F 45% 30.26 in 10.0 mi SSW 6.9 mph - N/A   Partly Cloudy
1:55 PM 84.2 °F 84.4 °F 60.8 °F 45% 30.25 in 10.0 mi South 8.1 mph - N/A   Partly Cloudy
2:15 PM 84.2 °F 84.4 °F 60.8 °F 45% 30.25 in 10.0 mi SE 5.8 mph - N/A   Scattered Clouds
2:35 PM 84.2 °F 84.4 °F 60.8 °F 45% 30.24 in 10.0 mi South 9.2 mph - N/A   Mostly Cloudy
2:55 PM 84.2 °F 84.4 °F 60.8 °F 45% 30.24 in 10.0 mi South 9.2 mph - N/A   Mostly Cloudy
3:15 PM 86.0 °F 86.1 °F 60.8 °F 43% 30.23 in 10.0 mi South 10.4 mph - N/A   Mostly Cloudy
3:35 PM 86.0 °F 86.1 °F 60.8 °F 43% 30.23 in 10.0 mi SSE 6.9 mph - N/A   Mostly Cloudy
3:55 PM 87.8 °F 87.6 °F 60.8 °F 40% 30.23 in 10.0 mi SSE 8.1 mph - N/A   Mostly Cloudy
4:15 PM 87.8 °F 87.6 °F 60.8 °F 40% 30.22 in 10.0 mi South 6.9 mph - N/A   Scattered Clouds
4:35 PM 86.0 °F 86.6 °F 62.6 °F 45% 30.22 in 10.0 mi South 9.2 mph - N/A   Mostly Cloudy
4:55 PM 87.8 °F 87.6 °F 60.8 °F 40% 30.21 in 10.0 mi SSW 8.1 mph - N/A   Scattered Clouds
5:15 PM 87.8 °F 88.5 °F 62.6 °F 43% 30.21 in 10.0 mi South 8.1 mph - N/A   Partly Cloudy
5:35 PM 84.2 °F 85.0 °F 62.6 °F 48% 30.21 in 10.0 mi SSW 5.8 mph - N/A   Clear
5:55 PM 84.2 °F 85.0 °F 62.6 °F 48% 30.21 in 10.0 mi South 9.2 mph - N/A   Clear
6:15 PM 84.2 °F 85.0 °F 62.6 °F 48% 30.20 in 10.0 mi SSE 8.1 mph - N/A   Clear
6:35 PM 84.2 °F 85.0 °F 62.6 °F 48% 30.20 in 10.0 mi SSE 9.2 mph - N/A   Scattered Clouds
6:55 PM 84.2 °F 85.6 °F 64.4 °F 51% 30.21 in 10.0 mi SE 8.1 mph - N/A   Mostly Cloudy
7:15 PM 82.4 °F 83.9 °F 64.4 °F 54% 30.20 in 10.0 mi SE 5.8 mph - N/A   Mostly Cloudy
7:35 PM 82.4 °F 83.4 °F 62.6 °F 51% 30.20 in 10.0 mi SSE 10.4 mph - N/A   Overcast
7:55 PM 80.6 °F 81.8 °F 62.6 °F 54% 30.20 in 10.0 mi SSE 9.2 mph - N/A   Scattered Clouds
8:15 PM 80.6 °F 81.8 °F 62.6 °F 54% 30.20 in 10.0 mi SE 8.1 mph - N/A   Clear
8:35 PM 78.8 °F - 62.6 °F 57% 30.20 in 10.0 mi SE 8.1 mph - N/A   Clear
8:55 PM 78.8 °F - 60.8 °F 54% 30.21 in 10.0 mi SSE 9.2 mph - N/A   Clear
9:15 PM 77.0 °F - 60.8 °F 57% 30.21 in 10.0 mi SSE 11.5 mph - N/A   Clear
9:35 PM 75.2 °F - 60.8 °F 61% 30.22 in 5.0 mi SSE 8.1 mph - N/A   Clear
9:55 PM 75.2 °F - 60.8 °F 61% 30.23 in 10.0 mi SSE 6.9 mph - N/A   Clear
10:15 PM 73.4 °F - 60.8 °F 65% 30.24 in 10.0 mi South 8.1 mph - N/A   Clear
10:35 PM 73.4 °F - 60.8 °F 65% 30.25 in 10.0 mi SSE 9.2 mph - N/A   Clear
10:55 PM 73.4 °F - 60.8 °F 65% 30.25 in 10.0 mi SSE 8.1 mph - N/A   Clear
11:15 PM 71.6 °F - 60.8 °F 69% 30.25 in 10.0 mi SSE 5.8 mph - N/A   Clear
11:35 PM 71.6 °F - 60.8 °F 69% 30.25 in 10.0 mi SSE 4.6 mph - N/A   Clear
11:55 PM 71.6 °F - 60.8 °F 69% 30.25 in 10.0 mi South 4.6 mph - N/A   Clear